TimeEST,TemperatureF,Dew PointF,Humidity,Sea Level PressureIn,VisibilityMPH,Wind Direction,Wind SpeedMPH,Gust SpeedMPH,PrecipitationIn,Events,Conditions,WindDirDegrees,DateUTC
12:15 AM,37.4,21.2,52,30.01,10.0,WNW,16.1,20.7,N/A,,Overcast,300,2012-12-30 05:15:00
12:35 AM,37.4,21.2,52,30.01,10.0,NW,17.3,25.3,N/A,,Overcast,310,2012-12-30 05:35:00
12:55 AM,37.4,19.4,48,30.02,10.0,NW,12.7,18.4,N/A,,Overcast,310,2012-12-30 05:55:00
1:15 AM,37.4,19.4,48,30.02,10.0,WNW,13.8,21.9,N/A,,Overcast,300,2012-12-30 06:15:00
1:55 AM,37.4,19.4,48,30.03,10.0,WNW,10.4,20.7,N/A,,Overcast,290,2012-12-30 06:55:00
2:15 AM,37.4,19.4,48,30.04,10.0,WNW,13.8,21.9,N/A,,Overcast,300,2012-12-30 07:15:00
2:35 AM,37.4,17.6,45,30.04,10.0,NW,12.7,26.5,N/A,,Overcast,310,2012-12-30 07:35:00
2:55 AM,37.4,15.8,41,30.06,10.0,NW,12.7,18.4,N/A,,Overcast,310,2012-12-30 07:55:00
3:15 AM,37.4,15.8,41,30.07,10.0,WNW,10.4,19.6,N/A,,Overcast,290,2012-12-30 08:15:00
3:35 AM,37.4,17.6,45,30.07,10.0,NW,13.8,20.7,N/A,,Mostly Cloudy,310,2012-12-30 08:35:00
3:55 AM,37.4,17.6,45,30.08,10.0,NW,17.3,24.2,N/A,,Scattered Clouds,310,2012-12-30 08:55:00
4:15 AM,35.6,17.6,48,30.09,10.0,NW,15.0,28.8,N/A,,Scattered Clouds,320,2012-12-30 09:15:00
4:35 AM,35.6,17.6,48,30.11,10.0,NW,23.0,28.8,N/A,,Scattered Clouds,320,2012-12-30 09:35:00
4:55 AM,35.6,17.6,48,30.11,10.0,NW,16.1,24.2,N/A,,Scattered Clouds,320,2012-12-30 09:55:00
5:15 AM,35.6,17.6,48,30.12,10.0,NW,13.8,21.9,N/A,,Scattered Clouds,320,2012-12-30 10:15:00
5:35 AM,35.6,17.6,48,30.13,10.0,NW,13.8,28.8,N/A,,Scattered Clouds,320,2012-12-30 10:35:00
8:55 AM,35.6,17.6,48,30.26,10.0,NW,18.4,27.6,N/A,,Clear,310,2012-12-30 13:55:00
9:15 AM,35.6,17.6,48,30.27,10.0,NW,24.2,29.9,N/A,,Clear,310,2012-12-30 14:15:00
9:35 AM,35.6,17.6,48,30.27,10.0,NW,19.6,23.0,N/A,,Clear,310,2012-12-30 14:35:00
9:55 AM,37.4,17.6,45,30.28,10.0,NW,16.1,21.9,N/A,,Clear,310,2012-12-30 14:55:00
10:15 AM,37.4,17.6,45,30.29,10.0,NW,17.3,26.5,N/A,,Clear,310,2012-12-30 15:15:00
10:35 AM,39.2,17.6,42,30.30,10.0,NW,11.5,18.4,N/A,,Clear,310,2012-12-30 15:35:00
10:55 AM,39.2,17.6,42,30.31,10.0,North,4.6,-,N/A,,Clear,360,2012-12-30 15:55:00
11:15 AM,41.0,17.6,39,30.31,10.0,NW,5.8,-,N/A,,Clear,310,2012-12-30 16:15:00
11:35 AM,42.8,17.6,36,30.31,10.0,NNW,6.9,-,N/A,,Clear,330,2012-12-30 16:35:00
11:55 AM,42.8,15.8,34,30.30,10.0,NNW,11.5,17.3,N/A,,Clear,340,2012-12-30 16:55:00
12:15 PM,42.8,15.8,34,30.30,10.0,NNW,6.9,-,N/A,,Clear,330,2012-12-30 17:15:00
12:35 PM,42.8,15.8,34,30.29,10.0,WNW,6.9,-,N/A,,Clear,290,2012-12-30 17:35:00
12:55 PM,44.6,15.8,31,30.30,10.0,West,4.6,-,N/A,,Clear,270,2012-12-30 17:55:00
1:15 PM,44.6,15.8,31,30.29,10.0,WNW,10.4,-,N/A,,Clear,300,2012-12-30 18:15:00
1:35 PM,44.6,15.8,31,30.29,10.0,NNW,12.7,18.4,N/A,,Clear,330,2012-12-30 18:35:00
1:55 PM,44.6,15.8,31,30.29,10.0,NW,11.5,-,N/A,,Clear,320,2012-12-30 18:55:00
2:15 PM,46.4,15.8,29,30.29,10.0,NNW,8.1,-,N/A,,Clear,340,2012-12-30 19:15:00
2:35 PM,46.4,15.8,29,30.30,10.0,NNW,8.1,-,N/A,,Clear,340,2012-12-30 19:35:00
2:55 PM,46.4,12.2,25,30.31,10.0,NW,5.8,-,N/A,,Clear,320,2012-12-30 19:55:00
3:15 PM,46.4,14.0,27,30.32,10.0,NNW,4.6,-,N/A,,Clear,330,2012-12-30 20:15:00
3:35 PM,46.4,14.0,27,30.32,10.0,NNW,4.6,-,N/A,,Clear,340,2012-12-30 20:35:00
3:55 PM,44.6,14.0,29,30.32,10.0,NNW,3.5,-,N/A,,Clear,330,2012-12-30 20:55:00
4:15 PM,44.6,12.2,27,30.31,10.0,NNW,10.4,-,N/A,,Clear,340,2012-12-30 21:15:00
4:35 PM,42.8,12.2,29,30.31,10.0,NNW,6.9,-,N/A,,Clear,340,2012-12-30 21:35:00
4:55 PM,42.8,12.2,29,30.31,10.0,NNW,4.6,-,N/A,,Clear,330,2012-12-30 21:55:00
5:15 PM,39.2,14.0,36,30.32,10.0,Calm,Calm,-,N/A,,Clear,0,2012-12-30 22:15:00
5:35 PM,39.2,12.2,33,30.32,10.0,NNE,3.5,-,N/A,,Clear,20,2012-12-30 22:35:00
5:55 PM,37.4,12.2,36,30.34,10.0,NNW,6.9,-,N/A,,Clear,340,2012-12-30 22:55:00
6:15 PM,35.6,15.8,44,30.34,10.0,Calm,Calm,-,N/A,,Clear,0,2012-12-30 23:15:00
6:35 PM,33.8,17.6,52,30.36,10.0,Calm,Calm,-,N/A,,Clear,0,2012-12-30 23:35:00
6:55 PM,30.2,19.4,64,30.36,10.0,Calm,Calm,-,N/A,,Clear,0,2012-12-30 23:55:00
7:15 PM,30.2,19.4,64,30.38,10.0,Calm,Calm,-,N/A,,Clear,0,2012-12-31 00:15:00
7:35 PM,30.2,19.4,64,30.38,10.0,Calm,Calm,-,N/A,,Clear,0,2012-12-31 00:35:00
7:55 PM,30.2,19.4,64,30.38,10.0,Calm,Calm,-,N/A,,Clear,0,2012-12-31 00:55:00
8:15 PM,32.0,17.6,55,30.38,10.0,Calm,Calm,-,N/A,,Clear,0,2012-12-31 01:15:00
8:35 PM,33.8,17.6,52,30.38,10.0,Calm,Calm,-,N/A,,Clear,0,2012-12-31 01:35:00
8:55 PM,30.2,17.6,60,30.37,10.0,Calm,Calm,-,N/A,,Clear,0,2012-12-31 01:55:00
9:15 PM,30.2,17.6,60,30.36,10.0,Calm,Calm,-,N/A,,Clear,0,2012-12-31 02:15:00
9:35 PM,28.4,19.4,69,30.37,10.0,Calm,Calm,-,N/A,,Clear,0,2012-12-31 02:35:00
9:55 PM,28.4,19.4,69,30.37,10.0,Calm,Calm,-,N/A,,Clear,0,2012-12-31 02:55:00
10:15 PM,28.4,19.4,69,30.38,10.0,Calm,Calm,-,N/A,,Clear,0,2012-12-31 03:15:00
10:35 PM,26.6,19.4,74,30.38,10.0,Calm,Calm,-,N/A,,Clear,0,2012-12-31 03:35:00
10:55 PM,26.6,19.4,74,30.38,10.0,Calm,Calm,-,N/A,,Clear,0,2012-12-31 03:55:00
11:15 PM,26.6,19.4,74,30.38,10.0,Calm,Calm,-,N/A,,Clear,0,2012-12-31 04:15:00
11:35 PM,26.6,19.4,74,30.38,10.0,Calm,Calm,-,N/A,,Clear,0,2012-12-31 04:35:00
11:55 PM,26.6,19.4,74,30.36,10.0,Calm,Calm,-,N/A,,Clear,0,2012-12-31 04:55:00